User: anonymous   Login
Location: Unspecified
(0.0000°N, 0.0000°E)
Time: 04:01:37
(UTC+00:00)
Language:

Aussat K3 - Orbit

View from above orbital plane
View from above orbital plane
View from above satellite
View from above satellite

Ground track
Ground track

The orbit data is extracted from the following two-line orbital elements,

1 18350U 87078A   14304.83398144 -.00000033  00000-0  00000+0 0  1852
2 18350 013.8547 028.3624 0004865 236.0835 165.9723 00.98904056 98520
Epoch (UTC): 31 October 2014 20:00:55
Eccentricity: 0.0004865
inclination: 13.8547°
perigee height: 36153 km
apogee height: 36195 km
right ascension of ascending node: 28.3624°
argument of perigee: 236.0835°
revolutions per day: 0.98904056
mean anomaly at epoch: 165.9723°
orbit number at epoch: 9852

The dashed part of the orbit path shows where the satellite is in the earth's shadow,  

DLR